This demonstration page uses our WeatherBlox Daily Observations layout. Learn more.

Left ArrowRight Arrow

44.8408, -93.29828

Hourly Observations for May 4, 2021

Temp ( °F °C ) Dew Point ( °F °C ) Humidity (%) Winds ( mph kmh ) Pressure ( in mb ) Visibility ( mi km ) Precip ( " mm )
12:53 am 00:53 Mostly Cloudy 52 11.1 39 3.9 61 61 NNW 14 22 29.91 1013 10 16 0.00 0.00
1:53 am 01:53 Partly Cloudy 47 8.3 34 1.1 61 61 NNW 17 28 29.89 1012 10 16 0.00 0.00
2:53 am 02:53 Partly Cloudy 46 7.8 33 0.6 61 61 NW 13 20 29.93 1014 10 16 0.00 0.00
3:53 am 03:53 Cloudy 45 7.2 33 0.6 63 63 NW 13 20 29.94 1014 10 16 0.00 0.00
4:53 am 04:53 Cloudy 43 6.1 33 0.6 68 68 NW 13 20 29.96 1015 10 16 0.00 0.00
5:53 am 05:53 Mostly Clear 42 5.6 33 0.6 71 71 NW 12 19 29.97 1015 10 16 0.00 0.00
6:53 am 06:53 Mostly Sunny 42 5.6 33 0.6 71 71 NNW 14 22 29.99 1016 10 16 0.00 0.00
7:53 am 07:53 Mostly Sunny 45 7.2 33 0.6 63 63 NNW 12 19 30.00 1016 10 16 0.00 0.00
8:53 am 08:53 Mostly Sunny 48 8.9 34 1.1 58 58 N 15 24 30.01 1016 10 16 0.00 0.00
9:53 am 09:53 Mostly Sunny 50 10 35 1.7 57 57 N 8 13 30.01 1016 10 16 0.00 0.00
10:53 am 10:53 Mostly Sunny 53 11.7 33 0.6 47 47 NNW 15 24 30.00 1016 10 16 0.00 0.00
11:53 am 11:53 Mostly Cloudy 55 12.8 34 1.1 45 45 NNW 12 19 30.00 1016 10 16 0.00 0.00
12:53 pm 12:53 Mostly Cloudy 58 14.4 33 0.6 39 39 NW 15 24 29.99 1016 10 16 0.00 0.00
1:53 pm 13:53 Mostly Cloudy 55 12.8 31 -0.6 40 40 NNW 16 26 29.99 1016 10 16 0.00 0.00
2:53 pm 14:53 Mostly Cloudy 57 13.9 30 -1.1 36 36 NW 17 28 29.99 1016 10 16 0.00 0.00
3:53 pm 15:53 Mostly Cloudy 58 14.4 30 -1.1 35 35 N 10 17 29.98 1015 10 16 0.00 0.00
4:53 pm 16:53 Mostly Cloudy 59 15 30 -1.1 33 33 NNE 12 19 29.98 1015 10 16 0.00 0.00
5:53 pm 17:53 Partly Cloudy 57 13.9 29 -1.7 34 34 N 15 24 29.99 1016 10 16 0.00 0.00
6:53 pm 18:53 Partly Cloudy 57 13.9 29 -1.7 34 34 NNW 12 19 29.99 1016 10 16 0.00 0.00
7:53 pm 19:53 Mostly Sunny 55 12.8 28 -2.2 35 35 N 12 19 29.99 1016 10 16 0.00 0.00
8:53 pm 20:53 Clear 53 11.7 27 -2.8 37 37 N 12 19 30.02 1017 10 16 0.00 0.00
9:53 pm 21:53 Clear 51 10.6 26 -3.3 38 38 N 7 11 30.05 1018 10 16 0.00 0.00
10:53 pm 22:53 Clear 49 9.4 26 -3.3 41 41 N 6 9 30.07 1018 10 16 0.00 0.00
11:53 pm 23:53 Clear 47 8.3 27 -2.8 46 46 N 5 7 30.08 1019 10 16 0.00 0.00

Powered by AerisWeather